This is the latest recevied weather packets stored in our database for station/object HB9HFD-13. If no packets are shown the sender has not sent any weather packets the latest 10 day(s).
| Time | Temp. | Humidity | Pressure | Rain* | Wind** | Luminosity | Snow |
|---|---|---|---|---|---|---|---|
| 1777475837 | 21.67° C | 49% | 1013.5 hPa | 0 mm | - | - | - |
| 1777475536 | 22.22° C | 50% | 1013.5 hPa | 0 mm | - | - | - |
| 1777475236 | 21.67° C | 52% | 1013.5 hPa | 0 mm | - | - | - |
| 1777474936 | 21.67° C | 53% | 1013.4 hPa | 0 mm | - | - | - |
| 1777474636 | 21.11° C | 56% | 1013.4 hPa | 0 mm | - | - | - |
| 1777474335 | 21.11° C | 55% | 1013.3 hPa | 0 mm | - | - | - |
| 1777474035 | 21.11° C | 58% | 1013.4 hPa | 0 mm | - | - | - |
| 1777473735 | 21.11° C | 56% | 1013.5 hPa | 0 mm | - | - | - |
| 1777473434 | 21.11° C | 55% | 1013.4 hPa | 0 mm | - | - | - |
| 1777473134 | 21.67° C | 55% | 1013.5 hPa | 0 mm | - | - | - |
| 1777472834 | 21.67° C | 55% | 1013.5 hPa | 0 mm | - | - | - |
| 1777472534 | 21.67° C | 55% | 1013.5 hPa | 0 mm | - | - | - |
| 1777472233 | 21.67° C | 56% | 1013.5 hPa | 0 mm | - | - | - |
| 1777471933 | 21.67° C | 57% | 1013.5 hPa | 0 mm | - | - | - |
| 1777471633 | 21.11° C | 58% | 1013.5 hPa | 0 mm | - | - | - |
| 1777471333 | 20.56° C | 57% | 1013.6 hPa | 0 mm | - | - | - |
| 1777471032 | 20.56° C | 60% | 1013.6 hPa | 0 mm | - | - | - |
| 1777470732 | 20° C | 61% | 1013.6 hPa | 0 mm | - | - | - |
| 1777470432 | 19.44° C | 61% | 1013.7 hPa | 0 mm | - | - | - |
| 1777470131 | 19.44° C | 60% | 1013.8 hPa | 0 mm | - | - | - |
| 1777469831 | 19.44° C | 62% | 1013.8 hPa | 0 mm | - | - | - |
| 1777469531 | 19.44° C | 61% | 1013.8 hPa | 0 mm | - | - | - |
| 1777469231 | 19.44° C | 63% | 1013.8 hPa | 0 mm | - | - | - |
| 1777468930 | 19.44° C | 62% | 1013.8 hPa | 0 mm | - | - | - |
| 1777468630 | 19.44° C | 62% | 1013.9 hPa | 0 mm | - | - | - |
* Rain latest hour (hover to see other rain measurements)
** Current wind speed in m/s (hover to see current wind gust speed)